This is the latest recevied weather packets stored in our database for station/object WAYLND-WX. If no packets are shown the sender has not sent any weather packets the latest 10 day(s).
| Time | Temp. | Humidity | Pressure | Rain* | Wind** | Luminosity | Snow |
|---|---|---|---|---|---|---|---|
| 1777746661 | 8.33° C | 44% | 991.3 hPa | 0 mm | - | - | - |
| 1777745741 | 8.33° C | 44% | 991.3 hPa | 0 mm | - | - | - |
| 1777744874 | 7.78° C | 44% | 991.3 hPa | 0 mm | - | - | - |
| 1777743942 | 7.78° C | 46% | 991.8 hPa | 0 mm | - | - | - |
| 1777743059 | 7.78° C | 43% | 991.7 hPa | 0 mm | - | - | - |
| 1777742142 | 7.78° C | 43% | 991.8 hPa | 0 mm | - | - | - |
| 1777741266 | 7.78° C | 43% | 991.8 hPa | 0 mm | - | - | - |
| 1777740342 | 7.78° C | 46% | 991.2 hPa | 0 mm | - | - | - |
| 1777739462 | 7.78° C | 44% | 990.8 hPa | 0 mm | - | - | - |
| 1777738542 | 7.22° C | 44% | 990.8 hPa | 0 mm | - | - | - |
| 1777737672 | 6.67° C | 44% | 990.8 hPa | 0 mm | - | - | - |
| 1777736742 | 6.67° C | 48% | 990.8 hPa | 0 mm | - | - | - |
| 1777735859 | 6.11° C | 52% | 990.9 hPa | 0 mm | - | - | - |
| 1777734943 | 6.11° C | 52% | 990.9 hPa | 0 mm | - | - | - |
| 1777734074 | 5.56° C | 52% | 990.9 hPa | 0 mm | - | - | - |
| 1777733142 | 5.56° C | 55% | 991.2 hPa | 0 mm | - | - | - |
| 1777732257 | 5° C | 61% | 991.7 hPa | 0 mm | - | - | - |
| 1777731343 | 5° C | 61% | 991.7 hPa | 0 mm | - | - | - |
| 1777730477 | 4.44° C | 61% | 991.7 hPa | 0 mm | - | - | - |
| 1777729543 | 3.89° C | 72% | 991.4 hPa | 0 mm | - | - | - |
| 1777728660 | 3.89° C | 72% | 991.4 hPa | 0 mm | - | - | - |
| 1777727743 | 3.33° C | 72% | 991.3 hPa | 0 mm | - | - | - |
| 1777726869 | 2.78° C | 72% | 991.3 hPa | 0 mm | - | - | - |
| 1777725942 | 2.22° C | 80% | 990.4 hPa | 0 mm | - | - | - |
| 1777725060 | 1.67° C | 78% | 991.3 hPa | 0 mm | - | - | - |
* Rain latest hour (hover to see other rain measurements)
** Current wind speed in m/s (hover to see current wind gust speed)